Flag for Germany Weather past 2 weeks in Schönebeck, Saxony-Anhalt, Germany

Now
51 °F

Fog.


Feels Like: 51 °F
Forecast: 50 / 73 °F
Wind: 1 mph from Northeast

Location: Magdeburg


UV Index: 3 (Moderate)

Visibility: 1 mi


Pressure: 30.17 "Hg

Humidity: 99%

Dew point: 51 °F

Location of SchönebeckLocation

Historic Weather in Schönebeck

°F

Schönebeck temperature yesterday

Maximum temperature yesterday: 70 °F (at 6:00 PM)
Minimum temperature yesterday: 46 °F (at 5:00 AM)
Average temperature yesterday: 59 °F

Past Weeks' High & Low Weather Summary

 TemperatureHumidityPressure
High70 °F (Apr 23, 6:00 PM)100% (Apr 19, 3:00 AM)30.47 "Hg (Apr 19, 3:00 AM)
Low31 °F (Apr 16, 6:00 AM)25% (Apr 16, 1:00 PM)29.70 "Hg (Apr 21, 3:00 PM)
Average51 °F75%30.03 "Hg
* Reported Apr 9 8:00 AM — Apr 24 8:00 AM, Schönebeck, Weather by CustomWeather, © 2014

Note: Actual official high and low records may vary slightly from our data, if they occured in-between our weather recording intervals... More about our weather records

Advertising

Historic Weather Conditions — Data for Previous 24 hours

 ConditionsComfort  
Time TempWeatherWind HumidityBarometerVisibility
8:00 AM
Apr 24
51 °FFog.1 mph99%30.17 "Hg1 mi
7:00 AM51 °FFog.3 mph99%30.16 "Hg1 mi
6:00 AM52 °FFog.2 mph100%30.15 "Hg0 mi
4:00 AM54 °FDuststorm.2 mph99%30.15 "Hg1 mi
3:00 AM53 °FCool.2 mph99%30.15 "Hg1 mi
2:00 AM51 °FFog.2 mph97%30.15 "Hg2 mi
1:00 AM51 °FFog.2 mph95%30.15 "Hg3 mi
12:00 AM53 °FFog.1 mph92%30.15 "Hg4 mi
10:00 PM
Apr 23
56 °FPassing clouds.1 mph85%30.14 "Hg7 mi
9:00 PM62 °FClear.2 mph71%30.12 "Hg12 mi
8:00 PM66 °FOvercast.2 mph61%30.10 "Hg16 mi
7:00 PM67 °FPartly sunny.2 mph58%30.09 "Hg15 mi
6:00 PM70 °FPassing clouds.2 mph53%30.08 "Hg22 mi
5:00 PM67 °FScattered clouds.2 mph52%30.09 "Hg19 mi
4:00 PM69 °FScattered clouds.2 mph52%30.10 "Hg16 mi
3:00 PM67 °FScattered clouds.1 mph56%30.11 "Hg11 mi
2:00 PM66 °FScattered clouds.2 mph61%30.11 "Hg11 mi
1:00 PM67 °FPassing clouds.2 mph64%30.11 "Hg10 mi
12:00 PM65 °FPassing clouds.2 mph66%30.11 "Hg7 mi
11:00 AM62 °FPassing clouds.2 mph73%30.11 "Hg5 mi
10:00 AM61 °FHaze.1 mph77%30.11 "Hg4 mi
9:00 AM56 °FFog.1 mph85%30.10 "Hg4 mi
Weather by CustomWeather, © 2014

See weather overview